Location: De Har
(53.3413°N, 6.6858°E)
Time: 17:22:30
(UTC+00:00)

ATLAS 2AS CENTAUR R/B - Pass Details

Date: 22 April 2026
Orbit: 1052 x 1158 km, 63.7° (Epoch: 9 May)

Event Time Altitude Azimuth Distance (km) Brightness Sun altitude
Exits shadow 00:09:45 39° 230° (SW) 1,556 3.2 -24.0°
Maximum altitude 00:12:35 86° 317° (NW) 1,080 2.6 -23.9°
Drops below altitude 10° 00:19:26 10° 47° (NE) 2,887 5.7 -23.7°
Sets 00:22:04 0° 48° (NE) 3,838 6.5 -23.6°
